• In Österreich
  • Länderverzeichnis
  • Für 7 Tage
  • Wassertemperatur
  • Satellitenkarten
  • Wetterkarte
  • News
  • Widgets
  • user-avatar
    Anmelden

    Stündliche Wetter Santa Fe

    Heute, 21 Oktober, Samstag

    Zeit Temperatur Niederschläge Wind Luftdruck Luftfeuchtigkeit
    00:00 +21°C° 0 mm 2 m/S 755 mmHg 85%
    01:00 +21°C° 0 mm 3 m/S 755 mmHg 85%
    02:00 +21°C° 0 mm 3 m/S 755 mmHg 85%
    03:00 +20°C° 0 mm 4 m/S 756 mmHg 85%
    04:00 +19°C° 0 mm 5 m/S 756 mmHg 85%
    05:00 +19°C° 0 mm 6 m/S 757 mmHg 85%
    06:00 +19°C° 0 mm 6 m/S 758 mmHg 82%
    07:00 +19°C° 0 mm 6 m/S 759 mmHg 80%
    08:00 +20°C° 0 mm 7 m/S 760 mmHg 78%
    09:00 +20°C° 0 mm 7 m/S 760 mmHg 72%
    10:00 +21°C° 0 mm 6 m/S 761 mmHg 66%
    11:00 +21°C° 0 mm 6 m/S 762 mmHg 60%
    12:00 +22°C° 0 mm 6 m/S 762 mmHg 52%
    13:00 +23°C° 0 mm 6 m/S 762 mmHg 43%
    14:00 +24°C° 0 mm 7 m/S 762 mmHg 35%
    15:00 +24°C° 0 mm 6 m/S 762 mmHg 36%
    16:00 +23°C° 0 mm 5 m/S 762 mmHg 38%
    17:00 +22°C° 0 mm 5 m/S 762 mmHg 39%
    18:00 +20°C° 0 mm 4 m/S 763 mmHg 41%
    19:00 +18°C° 0 mm 4 m/S 764 mmHg 43%
    20:00 +15°C° 0 mm 4 m/S 764 mmHg 45%
    21:00 +14°C° 0 mm 3 m/S 765 mmHg 48%
    22:00 +13°C° 0 mm 3 m/S 765 mmHg 51%
    23:00 +13°C° 0 mm 2 m/S 766 mmHg 54%

    Morgen, 22 Oktober, Sonntag

    Zeit Temperatur Niederschläge Wind Luftdruck Luftfeuchtigkeit
    00:00 +13°C° 0 mm 2 m/S 766 mmHg 56%
    01:00 +11°C° 0 mm 3 m/S 766 mmHg 58%
    02:00 +11°C° 0 mm 3 m/S 766 mmHg 60%
    03:00 +10°C° 0 mm 2 m/S 766 mmHg 65%
    04:00 +10°C° 0 mm 2 m/S 766 mmHg 69%
    05:00 +9°C° 0 mm 2 m/S 767 mmHg 73%
    06:00 +12°C° 0 mm 2 m/S 767 mmHg 66%
    07:00 +13°C° 0 mm 3 m/S 768 mmHg 59%
    08:00 +16°C° 0 mm 3 m/S 768 mmHg 53%
    09:00 +17°C° 0 mm 3 m/S 768 mmHg 45%
    10:00 +19°C° 0 mm 3 m/S 768 mmHg 37%
    11:00 +21°C° 0 mm 3 m/S 767 mmHg 30%
    12:00 +21°C° 0 mm 2 m/S 766 mmHg 28%
    13:00 +23°C° 0 mm 2 m/S 766 mmHg 27%
    14:00 +24°C° 0 mm 2 m/S 765 mmHg 25%
    15:00 +23°C° 0 mm 2 m/S 764 mmHg 29%
    16:00 +23°C° 0 mm 2 m/S 763 mmHg 33%
    17:00 +21°C° 0 mm 3 m/S 763 mmHg 36%
    18:00 +20°C° 0 mm 3 m/S 763 mmHg 40%
    19:00 +18°C° 0 mm 3 m/S 763 mmHg 44%
    20:00 +16°C° 0 mm 3 m/S 764 mmHg 49%
    21:00 +14°C° 0 mm 3 m/S 764 mmHg 53%
    22:00 +13°C° 0 mm 3 m/S 764 mmHg 57%
    23:00 +12°C° 0 mm 3 m/S 764 mmHg 61%

    übermorgen, 23 Oktober, Montag

    Zeit Temperatur Niederschläge Wind Luftdruck Luftfeuchtigkeit
    00:00 +11°C° 0 mm 3 m/S 764 mmHg 64%
    01:00 +11°C° 0 mm 3 m/S 764 mmHg 67%
    02:00 +10°C° 0 mm 3 m/S 763 mmHg 70%
    03:00 +10°C° 0 mm 3 m/S 763 mmHg 72%
    04:00 +10°C° 0 mm 3 m/S 764 mmHg 73%
    05:00 +10°C° 0 mm 3 m/S 764 mmHg 74%
    06:00 +11°C° 0 mm 4 m/S 764 mmHg 68%
    07:00 +13°C° 0 mm 4 m/S 764 mmHg 62%
    08:00 +15°C° 0 mm 5 m/S 764 mmHg 57%
    09:00 +17°C° 0 mm 5 m/S 764 mmHg 50%
    10:00 +20°C° 0 mm 4 m/S 764 mmHg 44%
    11:00 +22°C° 0 mm 4 m/S 763 mmHg 38%
    12:00 +23°C° 0 mm 4 m/S 762 mmHg 36%
    13:00 +25°C° 0 mm 4 m/S 762 mmHg 34%
    14:00 +26°C° 0 mm 4 m/S 761 mmHg 32%
    15:00 +25°C° 0 mm 4 m/S 760 mmHg 35%
    16:00 +25°C° 0 mm 4 m/S 760 mmHg 39%
    17:00 +23°C° 0 mm 4 m/S 759 mmHg 43%
    18:00 +21°C° 0 mm 4 m/S 759 mmHg 50%
    19:00 +19°C° 0 mm 4 m/S 760 mmHg 57%
    20:00 +17°C° 0 mm 4 m/S 760 mmHg 63%
    21:00 +15°C° 0 mm 4 m/S 760 mmHg 67%
    22:00 +14°C° 0 mm 3 m/S 760 mmHg 71%
    23:00 +14°C° 0 mm 3 m/S 760 mmHg 75%

    24 Oktober, Dienstag

    Zeit Temperatur Niederschläge Wind Luftdruck Luftfeuchtigkeit
    00:00 +13°C° 0 mm 3 m/S 760 mmHg 77%
    01:00 +13°C° 0 mm 3 m/S 760 mmHg 79%
    02:00 +12°C° 0 mm 3 m/S 760 mmHg 80%
    03:00 +12°C° 0 mm 3 m/S 760 mmHg 81%
    04:00 +11°C° 0 mm 3 m/S 760 mmHg 83%
    05:00 +11°C° 0 mm 3 m/S 760 mmHg 84%
    06:00 +13°C° 0 mm 3 m/S 760 mmHg 76%
    07:00 +15°C° 0 mm 4 m/S 760 mmHg 69%
    08:00 +18°C° 0 mm 4 m/S 760 mmHg 62%
    09:00 +20°C° 0 mm 4 m/S 760 mmHg 55%
    10:00 +24°C° 0 mm 3 m/S 760 mmHg 48%
    11:00 +26°C° 0 mm 3 m/S 760 mmHg 40%
    12:00 +27°C° 0 mm 3 m/S 759 mmHg 37%
    13:00 +28°C° 0 mm 3 m/S 759 mmHg 34%
    14:00 +29°C° 0 mm 3 m/S 758 mmHg 31%
    15:00 +28°C° 0 mm 3 m/S 758 mmHg 36%
    16:00 +28°C° 0 mm 3 m/S 758 mmHg 40%
    17:00 +27°C° 0 mm 4 m/S 757 mmHg 45%
    18:00 +25°C° 0 mm 4 m/S 758 mmHg 51%
    19:00 +22°C° 0 mm 4 m/S 758 mmHg 58%
    20:00 +20°C° 0 mm 4 m/S 758 mmHg 65%
    21:00 +19°C° 0 mm 3 m/S 758 mmHg 70%
    22:00 +18°C° 0 mm 3 m/S 759 mmHg 75%
    23:00 +17°C° 0 mm 3 m/S 759 mmHg 80%

    25 Oktober, Mittwoch

    Zeit Temperatur Niederschläge Wind Luftdruck Luftfeuchtigkeit
    00:00 +17°C° 0 mm 3 m/S 758 mmHg 84%
    01:00 +17°C° 0 mm 2 m/S 758 mmHg 87%
    02:00 +16°C° 0 mm 2 m/S 758 mmHg 91%
    03:00 +16°C° 0 mm 2 m/S 758 mmHg 92%
    04:00 +16°C° 0 mm 2 m/S 758 mmHg 94%
    05:00 +16°C° 0 mm 2 m/S 757 mmHg 96%
    06:00 +18°C° 0 mm 3 m/S 758 mmHg 89%
    07:00 +20°C° 0 mm 3 m/S 758 mmHg 82%
    08:00 +22°C° 0 mm 3 m/S 758 mmHg 76%
    09:00 +25°C° 0 mm 3 m/S 758 mmHg 67%
    10:00 +27°C° 0 mm 3 m/S 757 mmHg 59%
    11:00 +29°C° 0 mm 2 m/S 757 mmHg 50%
    12:00 +30°C° 0 mm 2 m/S 756 mmHg 48%
    13:00 +30°C° 0 mm 2 m/S 755 mmHg 47%
    14:00 +30°C° 0 mm 2 m/S 755 mmHg 45%
    15:00 +29°C° 0 mm 2 m/S 754 mmHg 51%
    16:00 +28°C° 0 mm 2 m/S 754 mmHg 56%
    17:00 +27°C° 0 mm 2 m/S 753 mmHg 62%
    18:00 +26°C° 0 mm 2 m/S 754 mmHg 68%
    19:00 +25°C° 0 mm 3 m/S 754 mmHg 74%
    20:00 +24°C° 0 mm 3 m/S 754 mmHg 80%
    21:00 +22°C° 0 mm 3 m/S 754 mmHg 84%
    22:00 +21°C° 0 mm 2 m/S 754 mmHg 89%
    23:00 +21°C° 0 mm 2 m/S 754 mmHg 93%

    26 Oktober, Donnerstag

    Zeit Temperatur Niederschläge Wind Luftdruck Luftfeuchtigkeit
    00:00 +20°C° 0 mm 2 m/S 754 mmHg 93%
    01:00 +20°C° 0 mm 2 m/S 753 mmHg 94%
    02:00 +20°C° 0 mm 2 m/S 753 mmHg 95%
    03:00 +19°C° 0 mm 2 m/S 753 mmHg 95%
    04:00 +19°C° 0 mm 2 m/S 753 mmHg 95%
    05:00 +19°C° 0 mm 2 m/S 753 mmHg 96%
    06:00 +22°C° 0 mm 1 m/S 753 mmHg 88%
    07:00 +24°C° 0 mm 1 m/S 754 mmHg 80%
    08:00 +26°C° 0 mm 1 m/S 754 mmHg 73%
    09:00 +28°C° 0 mm 2 m/S 754 mmHg 64%
    10:00 +30°C° 0 mm 2 m/S 753 mmHg 56%
    11:00 +32°C° 0 mm 2 m/S 753 mmHg 47%
    12:00 +32°C° 0 mm 2 m/S 753 mmHg 46%
    13:00 +32°C° 0 mm 2 m/S 752 mmHg 45%
    14:00 +32°C° 0 mm 2 m/S 752 mmHg 44%
    15:00 +31°C° 0,1 mm 3 m/S 752 mmHg 48%
    16:00 +30°C° 0,1 mm 3 m/S 753 mmHg 52%
    17:00 +29°C° 0,1 mm 4 m/S 753 mmHg 56%
    18:00 +28°C° 0 mm 3 m/S 753 mmHg 64%
    19:00 +26°C° 0 mm 3 m/S 754 mmHg 71%
    20:00 +24°C° 0 mm 3 m/S 755 mmHg 79%
    21:00 +22°C° 0 mm 3 m/S 755 mmHg 82%
    22:00 +21°C° 0 mm 2 m/S 755 mmHg 86%
    23:00 +20°C° 0 mm 2 m/S 756 mmHg 89%
    Mehr zeigen